Satellite-Ground Cal/Val Region Overpasses Predictions

Prediction of Satellite NPP Overpassing Cal/Val Region: PacNW

Region Location: (Latitude: 10.00, Longitude: 139.50) to (Latitude: 22.70, Longitude: 165.60).

Table of predicted overpasses for the next 14.0 days since TLE Epoch: 2/20/2021
Interval Starting Time Starting Location Ending Time Ending Location
1 02/20/2021 16:01:32 ( 22.70, 144.43) 02/20/2021 16:05:08 ( 10.02, 141.42)
2 02/21/2021 03:10:36 ( 10.00, 151.96) 02/21/2021 03:14:12 ( 22.68, 148.94)
3 02/21/2021 15:42:30 ( 22.67, 149.18) 02/21/2021 15:46:05 ( 10.05, 146.18)
4 02/22/2021 02:51:35 ( 10.03, 156.71) 02/22/2021 02:55:10 ( 22.65, 153.71)
5 02/22/2021 15:23:28 ( 22.69, 153.95) 02/22/2021 15:27:04 ( 10.01, 150.93)
6 02/23/2021 02:32:33 ( 10.00, 161.47) 02/23/2021 02:36:09 ( 22.68, 158.46)
7 02/23/2021 15:04:26 ( 22.66, 158.70) 02/23/2021 15:08:01 ( 10.04, 155.70)
8 02/24/2021 02:14:18 ( 12.80, 165.59) 02/24/2021 02:17:06 ( 22.66, 163.22)
9 02/24/2021 03:55:01 ( 10.04, 140.85) 02/24/2021 03:56:39 ( 15.80, 139.51)
10 02/24/2021 14:45:24 ( 22.69, 163.46) 02/24/2021 14:49:00 ( 10.01, 160.45)
11 02/25/2021 03:35:59 ( 10.01, 145.61) 02/25/2021 03:39:35 ( 22.69, 142.60)
12 02/25/2021 14:29:29 ( 11.68, 165.59) 02/25/2021 14:29:57 ( 10.04, 165.21)
13 02/25/2021 16:07:52 ( 22.65, 142.84) 02/25/2021 16:11:27 ( 10.03, 139.83)
14 02/26/2021 03:16:57 ( 10.05, 150.36) 02/26/2021 03:20:32 ( 22.67, 147.36)
15 02/26/2021 15:48:50 ( 22.68, 147.60) 02/26/2021 15:52:25 ( 10.06, 144.60)
16 02/27/2021 02:57:55 ( 10.02, 155.13) 02/27/2021 03:01:30 ( 22.64, 152.12)
17 02/27/2021 15:29:48 ( 22.65, 152.35) 02/27/2021 15:33:23 ( 10.03, 149.35)
18 02/28/2021 02:38:53 ( 10.05, 159.88) 02/28/2021 02:42:28 ( 22.68, 156.87)
19 02/28/2021 15:10:46 ( 22.67, 157.12) 02/28/2021 15:14:21 ( 10.05, 154.11)
20 03/01/2021 02:19:51 ( 10.03, 164.64) 03/01/2021 02:23:26 ( 22.65, 161.64)
21 03/01/2021 14:51:43 ( 22.70, 161.88) 03/01/2021 14:55:19 ( 10.02, 158.86)
22 03/02/2021 03:42:18 ( 10.01, 144.03) 03/02/2021 03:45:54 ( 22.69, 141.01)
23 03/02/2021 14:33:54 ( 18.44, 165.59) 03/02/2021 14:36:17 ( 10.04, 163.63)
24 03/02/2021 16:14:12 ( 22.66, 141.25) 03/02/2021 16:16:15 ( 15.44, 139.50)
25 03/03/2021 03:23:17 ( 10.04, 148.78) 03/03/2021 03:26:52 ( 22.67, 145.78)
26 03/03/2021 15:55:10 ( 22.68, 146.02) 03/03/2021 15:58:46 ( 10.00, 143.00)
27 03/04/2021 03:04:14 ( 10.02, 153.54) 03/04/2021 03:07:49 ( 22.64, 150.54)
28 03/04/2021 15:36:08 ( 22.65, 150.77) 03/04/2021 15:39:43 ( 10.03, 147.77)
29 03/05/2021 02:45:13 ( 10.06, 158.29) 03/05/2021 02:48:48 ( 22.68, 155.29)
30 03/05/2021 15:17:06 ( 22.67, 155.53) 03/05/2021 15:20:41 ( 10.05, 152.53)
